Location: St Paul
(33.4390°N, 83.7350°W)
Time: 14:59:18
(UTC-04:00)

Cosmos 1980 Rocket - Pass Details

Date: 06 October 2017
Orbit: 829 x 850 km, 71.0° (Epoch: 22 October)

Event Time Altitude Azimuth Distance (km) Brightness Sun altitude
Rises 20:26:46 0° 344° (NNW) 3,404 5.6 -16.3°
Reaches altitude 10° 20:29:17 10° 349° (N) 2,469 4.8 -16.9°
Maximum altitude 20:34:50 55° 67° (ENE) 1,010 2.3 -18.0°
Enters shadow 20:38:13 24° 136° (SE) 1,704 3.4 -18.7°
